Location: Akdamlar
(36.8729°N, 30.5187°E)
Time: 18:58:52
(UTC+00:00)

USA 238 DEB - Pass Details

Date: 18 September 2020
Orbit: 1006 x 1206 km, 63.4° (Epoch: 15 October)

Event Time Altitude Azimuth Distance (km) Brightness Sun altitude
Rises 17:46:56 0° 332° (NNW) 3,959 7.4 -21.7°
Reaches altitude 10° 17:49:46 10° 340° (NNW) 3,027 6.6 -22.2°
Maximum altitude 17:56:38 43° 50° (NE) 1,588 4.3 -23.5°
Enters shadow 17:58:12 39° 80° (E) 1,703 4.3 -23.8°
